[[{"header":{"parameterUnit":"m.s-1","parameterCategory":2,"la1":30.2991,"la2":30.254,"lo1":-89.0895,"lo2":-89.0444,"dy":0.0017,"dx":0.0017,"nx":28,"ny":28,"refTime":"2023-08-08T09:00:00:Z","depth":"0","parameterNumber":2,"parameterNumberName":"U-component_of_CURRENTS"},"data":[0,0,0,0,0,0,0,0,0,0,0,0,0,0,0,0,0,0,0,0,0,0,0,0,0,0,0,0,0,0,0,0,0,0,0,0,0,0,0,0,0,0,0,0,0,0,0,0,0,0,0,0,0,0,0,0,0,0,0.2926,0.2925,0,0.2848,0.2847,0.2845,0.2771,0.2771,0.2771,0.277,0.2797,0.2798,0.2799,0,0,0,0,0,0,0,0,0,0,0,0,0,0.29,0.2901,0.2926,0.2925,0.2925,0.2848,0.2847,0.2845,0.2771,0.2771,0.277,0.277,0.2797,0.2798,0.2799,0,0,0,0,0,0,0,0,0,0,0,0,0,0.2869,0.2901,0.2926,0.2884,0.288,0.2849,0.2847,0.2844,0.2771,0.2771,0.277,0.277,0.2796,0.2798,0.2799,0.2816,0,0,0.2803,0.2804,0,0,0,0,0,0,0,0,0.2871,0.2869,0.2891,0.2887,0.2883,0.2825,0.2847,0.2843,0.2771,0.2805,0.277,0.277,0.2821,0.282,0.2795,0.2818,0.2819,0.2804,0.2804,0.2805,0.2805,0,0,0,0,0,0,0,0.2873,0.2872,0.2888,0.2891,0.2886,0.2833,0.2828,0.2845,0.2813,0.2802,0.2798,0.2801,0.2819,0.2794,0.2796,0.2819,0.2804,0.2805,0.2806,0.2806,0.2948,0.2951,0,0,0,0,0,0,0.2904,0.2874,0.289,0.2886,0.2884,0.2834,0.2829,0.2838,0.281,0.2807,0.2802,0.2798,0.2791,0.2794,0.2797,0.2883,0.2805,0.2806,0.2807,0.2946,0.2949,0.2952,0,0,0,0,0,0,0.2904,0.2906,0.2893,0.2883,0.2879,0.2837,0.2847,0.2837,0.2817,0.281,0.2807,0.2794,0.2791,0.2794,0.2829,0.2882,0.2807,0.2808,0.2942,0.2947,0.2951,0.3015,0,0,0,0,0,0,0.2903,0.2907,0.2914,0.2886,0.2881,0.2877,0.2848,0.2836,0.2823,0.2818,0.2803,0.2804,0.2791,0.2827,0.283,0.2882,0.281,0.2938,0.2944,0.2949,0.301,0.3021,0.3031,0,0,0,0,0,0.2903,0.2907,0.2915,0.2917,0.2896,0.2878,0.2869,0.2832,0.2824,0.2812,0.282,0.2805,0.2865,0.283,0.2833,0.2887,0.2936,0.2942,0.2949,0.3005,0.3019,0.3031,0,0,0,0,0,0,0.2885,0.29,0.2908,0.2914,0.2906,0.2868,0.2851,0.2842,0.2832,0.2832,0.2827,0.2829,0.2887,0.2881,0.2843,0.2949,0.2905,0.2912,0.2946,0.296,0.297,0.2938,0.2811,0,0,0,0,0,0.2896,0.2908,0.2911,0.2914,0.2914,0.289,0.2877,0.2861,0.2854,0.2846,0.2847,0.2869,0.2916,0.293,0.2954,0.3,0.303,0.3045,0.3056,0.3065,0.3045,0.3165,0.3185,0.2974,0.2974,0.2973,0,0,0.289,0.29,0.2905,0.2913,0.2897,0.2902,0.2878,0.2863,0.2872,0.2858,0.2871,0.2905,0.2939,0.2994,0.3021,0.2994,0.3147,0.3073,0.308,0.3054,0.3174,0.3194,0.3212,0.2978,0.2977,0.2977,0,0,0.2891,0.2896,0.2914,0.2911,0.2912,0.2901,0.2908,0.2892,0.2886,0.2909,0.293,0.2988,0.302,0.3065,0.3095,0.3184,0.3205,0.3209,0.3231,0.335,0.3367,0.3383,0.3466,0.3489,0.321,0.321,0.3211,0,0.2901,0.2915,0.291,0.2925,0.2924,0.2912,0.2925,0.292,0.292,0.2945,0.2921,0.3035,0.3054,0.3168,0.3189,0.3207,0.3266,0.3174,0.3363,0.3379,0.3394,0.3475,0.3499,0.3214,0.3214,0.3213,0.3213,0,0.292,0.2927,0.2928,0.2956,0.2951,0.2951,0.296,0.297,0.2973,0.2988,0.3079,0.3113,0.3184,0.322,0.3217,0.3357,0.3363,0.3368,0.3323,0.3419,0.3499,0.3523,0.322,0.3218,0.3217,0.3216,0,0,0.2977,0.2955,0.2961,0.2955,0.2967,0.2957,0.2995,0.3031,0.3065,0.3093,0.3157,0.3243,0.3272,0.3307,0.335,0.3429,0.3585,0.3433,0.3438,0.3501,0.384,0.3881,0.391,0.3637,0.3641,0.3644,0.3858,0,0.3008,0.3011,0.301,0.3011,0.3003,0.3011,0.3039,0.3071,0.3103,0.3158,0.3236,0.3306,0.3309,0.3353,0.3446,0.3546,0.3649,0.3525,0.3746,0.3751,0.3767,0.394,0.3881,0.407,0.3881,0.3885,0.3888,0,0.3047,0.3034,0.3032,0.3013,0.3018,0.3027,0.3068,0.3092,0.3183,0.3213,0.3314,0.3368,0.3501,0.3476,0.3714,0.3641,0.3743,0.381,0.3822,0.3843,0.3838,0.3943,0.4121,0.3913,0.3924,0.3921,0.3919,0,0.3056,0.3054,0.304,0.3034,0.3025,0.304,0.3049,0.3116,0.3142,0.3255,0.3295,0.3466,0.3544,0.3704,0.3843,0.38,0.409,0.4059,0.42,0.4202,0.4182,0.4176,0.4169,0.4247,0.4247,0.4246,0.4246,0,0.3084,0.3073,0.3033,0.3022,0.3012,0.3019,0.3047,0.3086,0.316,0.321,0.3321,0.3419,0.3605,0.3782,0.3901,0.414,0.4166,0.4237,0.4284,0.4206,0.42,0.4038,0.3912,0.4254,0.4253,0.4251,0.425,0,0.3092,0.307,0.304,0.3017,0.3005,0.2995,0.3004,0.3027,0.3105,0.3178,0.3216,0.3419,0.3665,0.3854,0.4127,0.4223,0.4318,0.4505,0.4382,0.4412,0.4326,0.4207,0.4152,0.4054,0.4701,0.4704,0.4706,0,0.3092,0.3074,0.3018,0.2985,0.297,0.2953,0.2939,0.2988,0.3014,0.3189,0.3226,0.3488,0.3683,0.4101,0.4345,0.4618,0.4415,0.4693,0.4601,0.4346,0.4249,0.4026,0.3929,0.4605,0.4606,0.4607,0.4608,0,0.3084,0.3064,0.3032,0.2962,0.2922,0.2878,0.287,0.2879,0.2959,0.305,0.3231,0.3413,0.3846,0.4129,0.4489,0.4663,0.444,0.4723,0.4509,0.4225,0.3933,0.3853,0.4397,0.4617,0.4616,0.4615,0.4615,0.4614,0.3071,0.3045,0.2995,0.293,0.2872,0.2805,0.2763,0.2796,0.2845,0.2971,0.3189,0.3441,0.3821,0.4352,0.4508,0.4644,0.4537,0.4551,0.4448,0.426,0.409,0.4642,0.488,0.4881,0.4881,0.4882,0.4882,0,0.3031,0.3007,0.2959,0.2863,0.2776,0.2762,0.271,0.2676,0.2719,0.2905,0.3087,0.3468,0.3796,0.411,0.4397,0.4333,0.4203,0.4209,0.3838,0.3778,0.4343,0.4259,0.4311,0.4311,0.4311,0.4312,0.4312,0.4312,0.3,0.2952,0.2928,0.2781,0.2709,0.2585,0.2535,0.2529,0.2609,0.2779,0.2979,0.3174,0.3493,0.3759,0.3848,0.387,0.3546,0.3477,0.3361,0.3688,0.3707,0.3726,0.3615,0.3532,0.3531,0.2716,0.271,0.2704]},{"header":{"parameterUnit":"m.s-1","parameterCategory":2,"la1":30.2991,"la2":30.254,"lo1":-89.0895,"lo2":-89.0444,"dy":0.0017,"dx":0.0017,"nx":28,"ny":28,"refTime":"2023-08-08T09:00:00:Z","depth":"0","parameterNumber":3,"parameterNumberName":"V-component_of_CURRENTS"},"data":[0,0,0,0,0,0,0,0,0,0,0,0,0,0,0,0,0,0,0,0,0,0,0,0,0,0,0,0,0,0,0,0,0,0,0,0,0,0,0,0,0,0,0,0,0,0,0,0,0,0,0,0,0,0,0,0,0,0,-0.0773,-0.0773,0,-0.0768,-0.0768,-0.0767,-0.0799,-0.08,-0.0802,-0.0803,-0.0911,-0.0912,-0.0914,0,0,0,0,0,0,0,0,0,0,0,0,0,-0.0698,-0.0699,-0.0773,-0.0773,-0.0774,-0.0768,-0.0767,-0.0767,-0.0799,-0.0801,-0.0802,-0.0804,-0.091,-0.0912,-0.0914,0,0,0,0,0,0,0,0,0,0,0,0,0,-0.071,-0.07,-0.0772,-0.0793,-0.0796,-0.0768,-0.0767,-0.0767,-0.0798,-0.0801,-0.0803,-0.0805,-0.091,-0.0912,-0.0914,-0.0884,0,0,-0.0921,-0.0922,0,0,0,0,0,0,0,0,-0.0709,-0.0712,-0.079,-0.0792,-0.0795,-0.0792,-0.0781,-0.0814,-0.0798,-0.0791,-0.0803,-0.0806,-0.0884,-0.0888,-0.0872,-0.0889,-0.0894,-0.0921,-0.0923,-0.0924,-0.0924,0,0,0,0,0,0,0,-0.0708,-0.0712,-0.0764,-0.079,-0.0793,-0.0765,-0.077,-0.0786,-0.0822,-0.0792,-0.0795,-0.0804,-0.0885,-0.087,-0.0875,-0.0895,-0.0921,-0.0923,-0.0925,-0.0925,-0.087,-0.0867,0,0,0,0,0,0,-0.0725,-0.0711,-0.0765,-0.0765,-0.0763,-0.0766,-0.077,-0.0785,-0.082,-0.0828,-0.0802,-0.0806,-0.0865,-0.0873,-0.088,-0.0835,-0.0924,-0.0926,-0.0927,-0.0873,-0.0869,-0.0866,0,0,0,0,0,0,-0.0723,-0.073,-0.0765,-0.0742,-0.0746,-0.0766,-0.0782,-0.0784,-0.0781,-0.0828,-0.0837,-0.0799,-0.0867,-0.0876,-0.0875,-0.0841,-0.0927,-0.0929,-0.0876,-0.0872,-0.0868,-0.0755,0,0,0,0,0,0,-0.0721,-0.0729,-0.0732,-0.0744,-0.0748,-0.0745,-0.078,-0.0783,-0.0785,-0.079,-0.0828,-0.0839,-0.0869,-0.0871,-0.0877,-0.0846,-0.093,-0.088,-0.0874,-0.0869,-0.0762,-0.0748,-0.0735,0,0,0,0,0,-0.0719,-0.0709,-0.0732,-0.0738,-0.0756,-0.0744,-0.0741,-0.0759,-0.0783,-0.0766,-0.0783,-0.0839,-0.0842,-0.087,-0.0878,-0.0847,-0.0882,-0.0876,-0.087,-0.0769,-0.0751,-0.0735,0,0,0,0,0,0,-0.066,-0.0713,-0.0738,-0.0742,-0.0746,-0.0752,-0.0734,-0.0755,-0.075,-0.0755,-0.0806,-0.0816,-0.0801,-0.0831,-0.0861,-0.081,-0.087,-0.0864,-0.079,-0.0774,-0.076,-0.0742,-0.0932,0,0,0,0,0,-0.0654,-0.0672,-0.0704,-0.0701,-0.0704,-0.0719,-0.0715,-0.0728,-0.0734,-0.0735,-0.0761,-0.0776,-0.0774,-0.0783,-0.0788,-0.0765,-0.0797,-0.0746,-0.0732,-0.0721,-0.0708,-0.0721,-0.0708,-0.0845,-0.0845,-0.0846,0,0,-0.0629,-0.066,-0.0668,-0.0691,-0.0692,-0.0671,-0.0719,-0.0705,-0.0679,-0.0748,-0.0713,-0.0735,-0.0756,-0.0722,-0.0718,-0.0749,-0.0694,-0.0712,-0.0703,-0.0696,-0.0713,-0.07,-0.0688,-0.0841,-0.0842,-0.0843,0,0,-0.058,-0.0614,-0.061,-0.0611,-0.0623,-0.0627,-0.0627,-0.0633,-0.0627,-0.0601,-0.0634,-0.0629,-0.0636,-0.0632,-0.0635,-0.0548,-0.0621,-0.0553,-0.0473,-0.0485,-0.0475,-0.0466,-0.048,-0.0473,-0.0546,-0.0546,-0.0546,0,-0.0557,-0.0555,-0.0597,-0.0582,-0.0572,-0.0607,-0.0575,-0.056,-0.0562,-0.0547,-0.0579,-0.0557,-0.0586,-0.0537,-0.05,-0.0519,-0.0541,-0.054,-0.047,-0.0462,-0.0455,-0.0471,-0.0465,-0.054,-0.0541,-0.0541,-0.0542,0,-0.0499,-0.0495,-0.048,-0.0486,-0.0472,-0.0446,-0.0447,-0.0427,-0.0434,-0.0431,-0.0393,-0.0412,-0.0406,-0.0404,-0.0427,-0.0376,-0.0412,-0.0455,-0.0518,-0.0435,-0.0456,-0.0452,-0.0531,-0.0533,-0.0535,-0.0537,0,0,-0.0484,-0.0453,-0.0451,-0.043,-0.0422,-0.0402,-0.035,-0.0317,-0.0279,-0.0278,-0.0229,-0.0215,-0.0243,-0.0245,-0.0273,-0.0273,-0.0242,-0.0332,-0.0336,-0.0356,-0.0268,-0.0286,-0.0285,-0.028,-0.0279,-0.0278,-0.03,0,-0.0436,-0.0377,-0.0378,-0.0309,-0.0279,-0.0283,-0.0227,-0.0199,-0.0183,-0.014,-0.0152,-0.0119,-0.0176,-0.0169,-0.0174,-0.0224,-0.0227,-0.0231,-0.0336,-0.0339,-0.0375,-0.0279,-0.0205,-0.0217,-0.0297,-0.0296,-0.0296,0,-0.0392,-0.0362,-0.0285,-0.0224,-0.0209,-0.0169,-0.01,-0.0055,-0.0007,0.0008,0.0027,0.0004,0.0023,-0.0047,-0.009,-0.0093,-0.0164,-0.0211,-0.0214,-0.0269,-0.035,-0.0314,-0.0209,-0.0351,-0.0291,-0.0291,-0.0291,0,-0.0361,-0.0299,-0.0231,-0.0212,-0.0147,-0.0109,-0.0069,-0.0014,0.0052,0.0097,0.0145,0.0131,0.0145,0.0062,-0.0036,-0.0066,-0.0095,-0.0162,-0.0242,-0.0246,-0.022,-0.0223,-0.0272,-0.0194,-0.0194,-0.0194,-0.0194,0,-0.0316,-0.0263,-0.0211,-0.0179,-0.0092,-0.0064,0.0036,0.0072,0.0156,0.0265,0.0221,0.0305,0.0173,0.0137,0.0015,-0.0084,-0.0064,-0.0201,-0.024,-0.0177,-0.0175,-0.0332,-0.0436,-0.0195,-0.0194,-0.0194,-0.0194,0,-0.028,-0.0243,-0.0176,-0.0108,-0.0076,-0.0018,0.0104,0.019,0.025,0.039,0.0415,0.0441,0.0405,0.0263,0.0139,-0.0,-0.0178,-0.0163,-0.0077,-0.0105,-0.0333,-0.0433,-0.0519,-0.0567,-0.0254,-0.0254,-0.0255,0,-0.0243,-0.0207,-0.0135,-0.0085,-0.005,0.0045,0.0136,0.0227,0.0338,0.0498,0.0588,0.059,0.0649,0.0452,0.0213,-0.0,-0.0153,-0.0116,-0.0163,-0.0307,-0.0447,-0.0508,-0.0547,-0.0081,-0.008,-0.0079,-0.0079,0,-0.0192,-0.0178,-0.013,-0.0037,0.0052,0.0187,0.0322,0.0434,0.0581,0.0721,0.0915,0.0972,0.0797,0.0659,0.0328,0.0147,-0.0191,-0.0107,-0.0265,-0.0311,-0.0368,-0.0445,-0.0121,-0.0071,-0.0071,-0.0072,-0.0072,-0.0073,-0.0166,-0.0127,-0.0071,0.0026,0.0145,0.0348,0.051,0.0681,0.0909,0.1195,0.119,0.1366,0.1067,0.0655,0.0363,-0.0115,-0.0148,-0.0244,-0.035,-0.0396,-0.0443,-0.0105,-0.0104,-0.0105,-0.0105,-0.0106,-0.0107,0,-0.0129,-0.0074,0.0007,0.0155,0.0329,0.0389,0.0663,0.0871,0.1188,0.1417,0.162,0.1617,0.1252,0.0785,0.0131,-0.0256,-0.0397,-0.0473,-0.0531,-0.0559,-0.0249,-0.0243,-0.0259,-0.0259,-0.0259,-0.0258,-0.0258,-0.0258,-0.0104,-0.0024,0.0025,0.0299,0.0443,0.0751,0.0949,0.1237,0.1464,0.1831,0.1992,0.2049,0.167,0.053,-0.029,-0.0512,-0.0763,-0.0811,-0.0971,-0.0765,-0.0751,-0.0738,-0.0755,-0.0878,-0.0879,-0.1176,-0.1179,-0.1182]}],[{"header":{"parameterUnit":"m.s-1","parameterCategory":2,"la1":30.2991,"la2":30.254,"lo1":-89.0895,"lo2":-89.0444,"dy":0.0017,"dx":0.0017,"nx":28,"ny":28,"refTime":"2023-08-08T09:00:00:Z","depth":"2","parameterNumber":2,"parameterNumberName":"U-component_of_CURRENTS"},"data":[0,0,0,0,0,0,0,0,0,0,0,0,0,0,0,0,0,0,0,0,0,0,0,0,0,0,0,0,0,0,0,0,0,0,0,0,0,0,0,0,0,0,0,0,0,0,0,0,0,0,0,0,0,0,0,0,0,0,0.0162,0.0164,0,0.0344,0.0346,0.0348,0.0461,0.0462,0.0462,0.0463,0.0511,0.0512,0.0513,0,0,0,0,0,0,0,0,0,0,0,0,0,0.0017,0.0019,0.0162,0.0164,0.0166,0.0344,0.0346,0.0349,0.0461,0.0462,0.0462,0.0463,0.0511,0.0512,0.0513,0,0,0,0,0,0,0,0,0,0,0,0,0,0.0128,0.0019,0.0161,0.0243,0.0252,0.0343,0.0346,0.0349,0.0461,0.0462,0.0463,0.0463,0.0511,0.0512,0.0513,0.0505,0,0,0.0517,0.0517,0,0,0,0,0,0,0,0,0.0122,0.0133,0.0229,0.0237,0.0248,0.038,0.0313,0.0395,0.0461,0.0383,0.0463,0.0464,0.0454,0.046,0.0496,0.0507,0.0509,0.0517,0.0518,0.0518,0.0519,0,0,0,0,0,0,0,0.0114,0.0127,0.0235,0.0231,0.0242,0.0307,0.0322,0.033,0.041,0.039,0.0398,0.0416,0.0458,0.0494,0.0497,0.051,0.0517,0.0518,0.0519,0.0519,0.0709,0.0714,0,0,0,0,0,0,0.0083,0.0119,0.0229,0.024,0.0184,0.0308,0.0326,0.0337,0.0413,0.0426,0.0416,0.0421,0.0492,0.0496,0.0499,0.0663,0.0518,0.0519,0.052,0.0705,0.071,0.0715,0,0,0,0,0,0,0.0079,0.0091,0.0222,0.0184,0.0205,0.0309,0.0322,0.0341,0.043,0.0434,0.0445,0.0491,0.0493,0.0497,0.0585,0.0658,0.052,0.0521,0.07,0.0707,0.0713,0.088,0,0,0,0,0,0,0.0074,0.0088,0.0103,0.0181,0.0205,0.0324,0.0321,0.0344,0.0436,0.0447,0.05,0.0504,0.0494,0.0584,0.0586,0.0657,0.0522,0.0695,0.0703,0.0711,0.0869,0.0891,0.091,0,0,0,0,0,0.0068,0.0097,0.0103,0.0117,0.0217,0.0327,0.0349,0.0424,0.0439,0.0503,0.0551,0.0505,0.0636,0.0589,0.059,0.0663,0.0691,0.0701,0.071,0.0859,0.0887,0.091,0,0,0,0,0,0,0.007,0.0113,0.0121,0.0168,0.0256,0.0347,0.0407,0.0454,0.0545,0.0558,0.0558,0.0567,0.0673,0.0648,0.0596,0.0746,0.0656,0.0666,0.0769,0.0794,0.0814,0.081,0.0523,0,0,0,0,0,0.0064,0.0082,0.0158,0.0202,0.0243,0.0329,0.0387,0.0447,0.0525,0.0569,0.0619,0.0661,0.0706,0.0736,0.0772,0.0845,0.0851,0.0896,0.0917,0.0934,0.0936,0.1021,0.1049,0.0747,0.0747,0.0747,0,0,0.0073,0.0103,0.0114,0.0202,0.0267,0.0361,0.037,0.048,0.0571,0.0552,0.0703,0.0737,0.0745,0.0849,0.0891,0.0841,0.1036,0.0947,0.0962,0.0953,0.1034,0.1063,0.1089,0.0754,0.0752,0.0751,0,0,0.0125,0.0134,0.018,0.0252,0.0359,0.0414,0.0456,0.0586,0.0657,0.0784,0.0805,0.0895,0.0966,0.1009,0.1023,0.1174,0.1146,0.1191,0.1288,0.1373,0.1398,0.142,0.1512,0.154,0.1198,0.1198,0.1198,0,0.014,0.0209,0.0224,0.0309,0.0384,0.0444,0.0556,0.0628,0.0784,0.0858,0.0852,0.1032,0.1037,0.1161,0.1221,0.1219,0.1268,0.1189,0.14,0.1421,0.144,0.1528,0.1558,0.1207,0.1206,0.1205,0.1204,0,0.0241,0.0308,0.0354,0.0457,0.054,0.065,0.0739,0.0849,0.0924,0.1006,0.1173,0.1214,0.1319,0.1344,0.132,0.148,0.1474,0.1419,0.133,0.148,0.1565,0.1592,0.1221,0.1217,0.1214,0.1212,0,0,0.0256,0.0394,0.0416,0.05,0.0634,0.0724,0.0855,0.1012,0.1123,0.1247,0.1408,0.1495,0.1534,0.1554,0.1567,0.1632,0.1819,0.1594,0.1594,0.1676,0.204,0.1931,0.195,0.1812,0.1816,0.182,0.206,0,0.0351,0.0519,0.0566,0.0751,0.0857,0.0936,0.1053,0.1189,0.1297,0.1462,0.1521,0.1661,0.1606,0.1682,0.1746,0.1807,0.1892,0.176,0.1889,0.1893,0.1769,0.1977,0.1673,0.1852,0.2086,0.2091,0.2094,0,0.0458,0.0555,0.0744,0.0913,0.0967,0.1081,0.1287,0.1401,0.158,0.1667,0.1803,0.1853,0.2002,0.1908,0.2091,0.2021,0.2049,0.2069,0.2078,0.1925,0.1833,0.1732,0.1891,0.2138,0.2135,0.2132,0.2129,0,0.0499,0.0689,0.0844,0.0908,0.1097,0.1207,0.1313,0.1489,0.1602,0.1816,0.1924,0.2082,0.2188,0.2255,0.2309,0.2226,0.2496,0.2375,0.2309,0.2302,0.2037,0.1998,0.2499,0.2499,0.2498,0.2497,0.2497,0,0.0593,0.073,0.0882,0.0974,0.1162,0.1271,0.1477,0.1596,0.1777,0.1943,0.2037,0.2199,0.2279,0.2425,0.2428,0.2493,0.2605,0.2376,0.2371,0.2092,0.2056,0.2267,0.2236,0.2506,0.2504,0.2503,0.2501,0,0.0652,0.0751,0.0933,0.1124,0.1195,0.1335,0.1549,0.1688,0.1843,0.2066,0.2143,0.2347,0.2562,0.2638,0.2787,0.2647,0.2711,0.2696,0.2373,0.2322,0.2425,0.2401,0.2635,0.2633,0.2632,0.2631,0.263,0,0.0747,0.082,0.1012,0.1111,0.1218,0.1414,0.1547,0.1723,0.187,0.2163,0.2284,0.2542,0.2686,0.2865,0.2684,0.2681,0.2848,0.2439,0.2178,0.2475,0.2448,0.2425,0.2404,0.1929,0.1922,0.1917,0.1912,0,0.0852,0.0876,0.0972,0.1167,0.1331,0.1496,0.1701,0.1804,0.203,0.2211,0.2479,0.2597,0.2664,0.2522,0.247,0.24,0.2398,0.2323,0.2792,0.1912,0.182,0.1788,0.1789,0.1864,0.1869,0.1873,0.1875,0.1877,0.0889,0.0953,0.1033,0.1228,0.1392,0.1559,0.1686,0.1878,0.2079,0.228,0.2447,0.2485,0.2269,0.1992,0.1986,0.1968,0.203,0.194,0.1953,0.1972,0.1819,0.1726,0.1727,0.1731,0.1734,0.1737,0.174,0,0.0925,0.097,0.1111,0.1298,0.1455,0.1567,0.1782,0.186,0.2073,0.2153,0.2294,0.1847,0.168,0.1701,0.1465,0.1339,0.1254,0.145,0.1353,0.1395,0.1434,0.1252,0.1012,0.1012,0.1011,0.1011,0,0,0.0934,0.0997,0.1065,0.1304,0.1467,0.1659,0.1775,0.1869,0.1908,0.1867,0.1791,0.1591,0.1506,0.117,0.1085,0.1134,0.1289,0.1084,0.1633,0.1558,0.1599,0.1639,0.1395,0,0,0,0,0]},{"header":{"parameterUnit":"m.s-1","parameterCategory":2,"la1":30.2991,"la2":30.254,"lo1":-89.0895,"lo2":-89.0444,"dy":0.0017,"dx":0.0017,"nx":28,"ny":28,"refTime":"2023-08-08T09:00:00:Z","depth":"2","parameterNumber":3,"parameterNumberName":"V-component_of_CURRENTS"},"data":[0,0,0,0,0,0,0,0,0,0,0,0,0,0,0,0,0,0,0,0,0,0,0,0,0,0,0,0,0,0,0,0,0,0,0,0,0,0,0,0,0,0,0,0,0,0,0,0,0,0,0,0,0,0,0,0,0,0,0.0359,0.0357,0,0.015,0.0147,0.0144,-0.0067,-0.007,-0.0072,-0.0074,-0.0274,-0.0277,-0.0281,0,0,0,0,0,0,0,0,0,0,0,0,0,0.046,0.046,0.0359,0.0357,0.0355,0.0151,0.0147,0.0144,-0.0067,-0.007,-0.0073,-0.0075,-0.0273,-0.0277,-0.0281,0,0,0,0,0,0,0,0,0,0,0,0,0,0.0346,0.0459,0.036,0.0229,0.0216,0.0151,0.0147,0.0143,-0.0066,-0.007,-0.0073,-0.0077,-0.0272,-0.0277,-0.0281,-0.0239,0,0,-0.0296,-0.0298,0,0,0,0,0,0,0,0,0.0353,0.0342,0.025,0.0238,0.0223,0.0068,0.0109,0.0017,-0.0065,0.0035,-0.0074,-0.0079,-0.0153,-0.0167,-0.0207,-0.0248,-0.0257,-0.0296,-0.0299,-0.0301,-0.0302,0,0,0,0,0,0,0,0.0361,0.0349,0.0271,0.0249,0.0232,0.0141,0.0122,0.009,-0.004,0.0026,0.0012,-0.0002,-0.0162,-0.0202,-0.0213,-0.026,-0.0296,-0.03,-0.0303,-0.0305,-0.0414,-0.0414,0,0,0,0,0,0,0.0408,0.0358,0.0278,0.0265,0.0286,0.0144,0.0121,0.0117,-0.004,-0.0067,0.0001,-0.0011,-0.0192,-0.0207,-0.022,-0.0256,-0.0301,-0.0305,-0.0308,-0.0414,-0.0414,-0.0415,0,0,0,0,0,0,0.0411,0.0403,0.0286,0.0309,0.0289,0.0147,0.0143,0.0115,0.0038,-0.0059,-0.0087,-0.0051,-0.0195,-0.0214,-0.0295,-0.0262,-0.0307,-0.0312,-0.0414,-0.0414,-0.0414,-0.0276,0,0,0,0,0,0,0.0415,0.0406,0.041,0.0314,0.029,0.0237,0.0147,0.0114,0.004,0.002,-0.011,-0.0132,-0.02,-0.0288,-0.03,-0.0269,-0.0315,-0.0414,-0.0414,-0.0414,-0.028,-0.0271,-0.0264,0,0,0,0,0,0.0419,0.0448,0.0412,0.0402,0.0304,0.0239,0.0217,0.0099,0.0041,0.0015,-0.0092,-0.013,-0.0298,-0.0292,-0.0306,-0.0276,-0.0414,-0.0414,-0.0414,-0.0284,-0.0273,-0.0264,0,0,0,0,0,0,0.0462,0.0427,0.0385,0.0391,0.0316,0.0204,0.018,0.0102,-0.0003,-0.0028,-0.0134,-0.0161,-0.0222,-0.0271,-0.0262,-0.0313,-0.0359,-0.0362,-0.0255,-0.0246,-0.0237,-0.018,-0.0319,0,0,0,0,0,0.049,0.0514,0.0434,0.0432,0.0409,0.0294,0.025,0.017,0.0074,0.002,-0.0077,-0.0167,-0.0223,-0.0256,-0.0326,-0.0339,-0.0384,-0.0332,-0.0324,-0.0316,-0.0282,-0.0361,-0.0355,-0.0415,-0.0415,-0.0415,0,0,0.0503,0.0488,0.0495,0.0445,0.0383,0.0364,0.0255,0.0196,0.0169,0.0026,-0.0051,-0.0146,-0.0227,-0.0267,-0.0294,-0.0306,-0.032,-0.0316,-0.0308,-0.0279,-0.036,-0.0354,-0.0349,-0.0416,-0.0416,-0.0415,0,0,0.0549,0.0533,0.0564,0.0526,0.0456,0.0401,0.0387,0.0266,0.0201,0.013,0.0018,-0.0062,-0.0158,-0.0212,-0.0242,-0.0221,-0.0284,-0.0247,-0.014,-0.0217,-0.0212,-0.0208,-0.0235,-0.0234,-0.0229,-0.0229,-0.0229,0,0.0561,0.0585,0.0552,0.0563,0.0542,0.043,0.043,0.0374,0.0228,0.0201,0.0121,-0.0033,-0.0118,-0.0132,-0.0141,-0.0194,-0.0243,-0.0165,-0.0202,-0.0199,-0.0198,-0.0227,-0.0228,-0.0222,-0.0223,-0.0224,-0.0224,0,0.0625,0.0631,0.0646,0.0644,0.0623,0.0601,0.0539,0.0491,0.0405,0.0337,0.0262,0.0127,0.0035,0.0003,-0.0061,-0.0076,-0.0115,-0.0191,-0.0215,-0.0182,-0.0216,-0.022,-0.0213,-0.0215,-0.0217,-0.0219,0,0,0.0679,0.069,0.0688,0.0694,0.066,0.0644,0.065,0.0614,0.061,0.0482,0.0463,0.035,0.025,0.0208,0.0104,0.0053,0.0016,-0.005,-0.0057,-0.0051,-0.0124,-0.0111,-0.0115,-0.008,-0.008,-0.008,-0.0143,0,0.072,0.0753,0.0762,0.0788,0.0795,0.0752,0.0768,0.0731,0.0673,0.0628,0.0526,0.0448,0.0342,0.0273,0.0213,0.0053,0.0008,0.0042,-0.0177,-0.0181,-0.0156,-0.0118,-0.0137,-0.0192,-0.0147,-0.0148,-0.0148,0,0.0773,0.0792,0.0806,0.0852,0.0855,0.0854,0.0865,0.0864,0.0827,0.078,0.0715,0.061,0.053,0.0401,0.0216,0.0235,0.0078,-0.0036,-0.0044,-0.0077,-0.0176,-0.0226,-0.0201,-0.0155,-0.0155,-0.0154,-0.0154,0,0.0787,0.0836,0.0842,0.0846,0.0869,0.0874,0.0887,0.0878,0.0885,0.0847,0.0834,0.0732,0.064,0.0464,0.024,0.0204,0.0038,-0.0057,-0.0173,-0.0173,-0.0249,-0.0254,-0.019,-0.0189,-0.0189,-0.0189,-0.0189,0,0.0823,0.0834,0.0835,0.0827,0.0853,0.0883,0.0899,0.0909,0.0924,0.0952,0.0878,0.0874,0.0637,0.0516,0.0306,0.009,0.0078,-0.0122,-0.0186,-0.0199,-0.0199,-0.0228,-0.0231,-0.0191,-0.0191,-0.0191,-0.019,0,0.0802,0.0801,0.0803,0.0825,0.0832,0.0832,0.0881,0.0924,0.094,0.0974,0.0962,0.0945,0.0818,0.0615,0.0343,0.0168,-0.0043,-0.0131,-0.009,-0.0147,-0.0215,-0.0211,-0.0252,-0.0252,-0.0252,-0.0252,-0.0252,0,0.0774,0.0773,0.0761,0.076,0.0747,0.0767,0.0805,0.0872,0.0938,0.1026,0.1063,0.0995,0.0984,0.0674,0.0354,0.0056,-0.0016,-0.0179,-0.0253,-0.0161,-0.0221,-0.0217,-0.0213,-0.03,-0.0301,-0.0301,-0.0301,0,0.074,0.0713,0.0712,0.0696,0.0709,0.0785,0.0853,0.0914,0.1032,0.1118,0.1249,0.1265,0.1004,0.0714,0.032,0.0118,-0.012,-0.0194,-0.0138,-0.0266,-0.0208,-0.0266,-0.0261,-0.0304,-0.0304,-0.0304,-0.0304,-0.0304,0.0687,0.0674,0.0662,0.0649,0.0698,0.0825,0.0914,0.1058,0.1214,0.1392,0.1384,0.1357,0.0901,0.0397,0.0139,-0.0104,-0.0113,-0.0296,-0.0296,-0.0294,-0.0273,-0.0218,-0.0309,-0.0308,-0.0308,-0.0308,-0.0308,0,0.0644,0.065,0.0647,0.0678,0.0759,0.0793,0.0985,0.1144,0.1376,0.1428,0.1548,0.1062,0.0734,0.034,-0.003,-0.0281,-0.0287,-0.0348,-0.0359,-0.0355,-0.0352,-0.0334,-0.0386,-0.0386,-0.0387,-0.0387,0,0,0.0638,0.0624,0.063,0.0722,0.0778,0.0963,0.1095,0.1351,0.1438,0.1541,0.1419,0.1188,0.0638,0.0251,-0.0055,-0.0176,-0.0181,-0.0185,-0.0106,-0.0076,-0.0069,-0.0318,-0.0285,0,0,0,0,0]}],[{"header":{"parameterUnit":"m.s-1","parameterCategory":2,"la1":30.2991,"la2":30.254,"lo1":-89.0895,"lo2":-89.0444,"dy":0.0017,"dx":0.0017,"nx":28,"ny":28,"refTime":"2023-08-08T09:00:00:Z","depth":"4","parameterNumber":2,"parameterNumberName":"U-component_of_CURRENTS"},"data":[0,0,0,0,0,0,0,0,0,0,0,0,0,0,0,0,0,0,0,0,0,0,0,0,0,0,0,0,0,0,0,0,0,0,0,0,0,0,0,0,0,0,0,0,0,0,0,0,0,0,0,0,0,0,0,0,0,0,-0.0067,-0.0067,0,-0.0076,-0.0076,-0.0076,-0.0099,-0.0099,-0.01,-0.01,-0.0109,-0.0109,-0.0109,0,0,0,0,0,0,0,0,0,0,0,0,0,-0.009,-0.0089,-0.0067,-0.0067,-0.0068,-0.0076,-0.0076,-0.0076,-0.0099,-0.0099,-0.01,-0.01,-0.0109,-0.0109,-0.0109,0,0,0,0,0,0,0,0,0,0,0,0,0,-0.0088,-0.0089,-0.0067,-0.0079,-0.008,-0.0076,-0.0076,-0.0077,-0.0099,-0.0099,-0.01,-0.01,-0.0109,-0.0109,-0.0109,-0.0096,0,0,-0.0108,-0.0108,0,0,0,0,0,0,0,0,-0.0088,-0.0088,-0.0077,-0.0078,-0.0079,-0.0086,-0.0087,-0.0083,-0.0099,-0.0093,-0.01,-0.0101,-0.01,-0.0101,-0.0103,-0.0097,-0.0097,-0.0108,-0.0108,-0.0108,-0.0108,0,0,0,0,0,0,0,-0.0088,-0.0087,-0.0072,-0.0077,-0.0078,-0.009,-0.0091,-0.0087,-0.0094,-0.0093,-0.0095,-0.0094,-0.0101,-0.0103,-0.0103,-0.0097,-0.0108,-0.0108,-0.0108,-0.0108,-0.0155,-0.0157,0,0,0,0,0,0,-0.0083,-0.0087,-0.0072,-0.0072,-0.0084,-0.0089,-0.009,-0.0084,-0.0094,-0.0096,-0.0093,-0.0095,-0.0103,-0.0103,-0.0103,-0.0156,-0.0108,-0.0108,-0.0108,-0.0154,-0.0156,-0.0157,0,0,0,0,0,0,-0.0084,-0.0082,-0.0071,-0.008,-0.0079,-0.0088,-0.0082,-0.0084,-0.0103,-0.0094,-0.0096,-0.0112,-0.0103,-0.0104,-0.0118,-0.0154,-0.0108,-0.0108,-0.0152,-0.0154,-0.0156,-0.0218,0,0,0,0,0,0,-0.0084,-0.0082,-0.0076,-0.0079,-0.0078,-0.0081,-0.0081,-0.0084,-0.01,-0.0103,-0.011,-0.0111,-0.0104,-0.0118,-0.0117,-0.0153,-0.0107,-0.0151,-0.0153,-0.0156,-0.0214,-0.0222,-0.0229,0,0,0,0,0,-0.0085,-0.0076,-0.0076,-0.0074,-0.007,-0.0081,-0.0082,-0.0091,-0.0101,-0.0111,-0.0119,-0.0111,-0.0135,-0.0118,-0.0118,-0.0154,-0.0149,-0.0153,-0.0156,-0.0211,-0.0221,-0.0228,0,0,0,0,0,0,-0.0089,-0.0077,-0.0077,-0.0067,-0.0078,-0.0085,-0.009,-0.0101,-0.0116,-0.0126,-0.0119,-0.012,-0.0149,-0.0139,-0.0122,-0.0176,-0.0145,-0.0148,-0.0188,-0.0196,-0.0203,-0.019,-0.0107,0,0,0,0,0,-0.0084,-0.0071,-0.0075,-0.0069,-0.0075,-0.0088,-0.0093,-0.0108,-0.0119,-0.0127,-0.0138,-0.0149,-0.0158,-0.0167,-0.0172,-0.0193,-0.0166,-0.022,-0.0227,-0.0233,-0.0223,-0.0224,-0.023,-0.0167,-0.0167,-0.0167,0,0,-0.0084,-0.0076,-0.007,-0.0069,-0.0078,-0.0091,-0.0094,-0.0115,-0.0132,-0.0124,-0.0157,-0.0172,-0.0168,-0.0199,-0.0212,-0.0197,-0.0236,-0.0237,-0.0242,-0.0228,-0.0228,-0.0234,-0.0239,-0.0169,-0.0169,-0.0169,0,0,-0.0082,-0.0075,-0.0068,-0.008,-0.0096,-0.0104,-0.0116,-0.0142,-0.0159,-0.019,-0.0194,-0.0223,-0.0244,-0.0249,-0.025,-0.0296,-0.0272,-0.0317,-0.0343,-0.0346,-0.0351,-0.0354,-0.032,-0.032,-0.0322,-0.0323,-0.0323,0,-0.0085,-0.0076,-0.0072,-0.008,-0.0092,-0.0113,-0.013,-0.0145,-0.0179,-0.0187,-0.021,-0.0252,-0.0261,-0.0278,-0.0311,-0.0311,-0.03,-0.0312,-0.0354,-0.0358,-0.036,-0.0324,-0.0323,-0.0326,-0.0325,-0.0325,-0.0325,0,-0.0083,-0.0085,-0.0089,-0.0098,-0.0112,-0.0135,-0.0156,-0.0181,-0.0213,-0.0227,-0.0268,-0.0294,-0.0316,-0.0341,-0.0344,-0.0379,-0.0359,-0.0361,-0.033,-0.037,-0.0329,-0.0327,-0.0331,-0.0329,-0.0328,-0.0328,0,0,-0.0074,-0.0083,-0.0088,-0.0099,-0.013,-0.0143,-0.0168,-0.0188,-0.0199,-0.0254,-0.027,-0.0326,-0.0353,-0.0357,-0.0379,-0.0396,-0.042,-0.0403,-0.0402,-0.0362,-0.0407,-0.0315,-0.0303,-0.0443,-0.0443,-0.0443,-0.0366,0,-0.008,-0.0091,-0.0097,-0.0125,-0.0139,-0.0164,-0.0181,-0.0204,-0.0228,-0.0249,-0.0283,-0.0314,-0.0353,-0.0386,-0.0411,-0.0415,-0.042,-0.0438,-0.0378,-0.0375,-0.0284,-0.03,-0.0445,-0.0365,-0.0364,-0.0364,-0.0363,0,-0.0079,-0.0088,-0.0119,-0.0136,-0.0145,-0.0178,-0.0205,-0.0221,-0.0239,-0.0258,-0.0294,-0.0312,-0.035,-0.0384,-0.0401,-0.0418,-0.042,-0.042,-0.0417,-0.0304,-0.028,-0.0318,-0.036,-0.036,-0.036,-0.036,-0.0361,0,-0.0074,-0.0097,-0.0125,-0.014,-0.0171,-0.0202,-0.0222,-0.0242,-0.0237,-0.0273,-0.0269,-0.0313,-0.033,-0.0359,-0.0355,-0.0397,-0.0339,-0.0389,-0.0293,-0.0285,-0.0363,-0.0359,-0.0389,-0.0389,-0.0389,-0.0389,-0.0389,0,-0.0074,-0.0089,-0.0139,-0.0162,-0.0198,-0.0222,-0.0249,-0.0267,-0.0269,-0.0239,-0.029,-0.0268,-0.0333,-0.03,-0.0326,-0.0273,-0.031,-0.0282,-0.0261,-0.0389,-0.039,-0.036,-0.0358,-0.0386,-0.0387,-0.0387,-0.0388,0,-0.0063,-0.0092,-0.0133,-0.019,-0.0206,-0.0248,-0.026,-0.0254,-0.0269,-0.023,-0.0238,-0.0231,-0.0203,-0.0202,-0.0207,-0.0205,-0.018,-0.0146,-0.0228,-0.0215,-0.0139,-0.0142,-0.0069,-0.0065,-0.0062,-0.0059,-0.0057,0,-0.0058,-0.008,-0.0159,-0.0191,-0.0232,-0.0272,-0.0274,-0.0275,-0.0244,-0.0185,-0.015,-0.0114,-0.0103,-0.001,-0.0051,-0.0037,-0.0048,-0.0022,-0.0149,-0.0121,-0.0108,-0.0116,-0.0122,-0.0052,-0.0051,-0.005,-0.0049,0,-0.0053,-0.0098,-0.0142,-0.0208,-0.0249,-0.0238,-0.0238,-0.0202,-0.0161,-0.0154,-0.0044,-0.001,0.0052,0.0044,0.0091,0.008,-0.0046,0.001,0.0,-0.012,-0.0099,-0.0092,-0.0102,-0.0038,-0.004,-0.0041,-0.0041,0,-0.0068,-0.0106,-0.0175,-0.0239,-0.0244,-0.0205,-0.0204,-0.0136,-0.0097,-0.0013,0.0033,0.0073,0.0087,0.0112,0.0147,0.0163,0.0109,0.008,0.0065,0.0052,0.0051,0.0092,0.0243,0,0,0,0,0,-0.0082,-0.0127,-0.0179,-0.0233,-0.0212,-0.0212,-0.0163,-0.0143,-0.0082,0.0017,0.0032,0.0099,0.0154,0.0158,0.0186,0.0149,0.0083,0.018,0.0034,0.0024,0.0011,-0.0005,0,0,0,0,0,0,-0.0098,-0.0151,-0.0194,-0.0196,-0.0199,-0.016,-0.0122,-0.0082,-0.002,0.0036,0.0061,0.0103,0.0135,0.0138,0.0184,0.0187,0.0099,0.0201,0.0202,0.0032,0.002,0.0009,-0.0011,0,0,0,0,0]},{"header":{"parameterUnit":"m.s-1","parameterCategory":2,"la1":30.2991,"la2":30.254,"lo1":-89.0895,"lo2":-89.0444,"dy":0.0017,"dx":0.0017,"nx":28,"ny":28,"refTime":"2023-08-08T09:00:00:Z","depth":"4","parameterNumber":3,"parameterNumberName":"V-component_of_CURRENTS"},"data":[0,0,0,0,0,0,0,0,0,0,0,0,0,0,0,0,0,0,0,0,0,0,0,0,0,0,0,0,0,0,0,0,0,0,0,0,0,0,0,0,0,0,0,0,0,0,0,0,0,0,0,0,0,0,0,0,0,0,-0.0093,-0.0094,0,-0.0118,-0.0118,-0.0118,-0.0112,-0.0111,-0.0111,-0.011,-0.0155,-0.0156,-0.0158,0,0,0,0,0,0,0,0,0,0,0,0,0,-0.0023,-0.0025,-0.0093,-0.0094,-0.0094,-0.0118,-0.0118,-0.0118,-0.0112,-0.0111,-0.0111,-0.011,-0.0154,-0.0156,-0.0158,0,0,0,0,0,0,0,0,0,0,0,0,0,-0.0051,-0.0025,-0.0093,-0.0094,-0.0094,-0.0118,-0.0118,-0.0119,-0.0112,-0.0111,-0.011,-0.011,-0.0154,-0.0156,-0.0158,-0.0187,0,0,-0.0166,-0.0167,0,0,0,0,0,0,0,0,-0.005,-0.0054,-0.0093,-0.0094,-0.0094,-0.0111,-0.011,-0.0143,-0.0112,-0.0105,-0.011,-0.0109,-0.0143,-0.0146,-0.0152,-0.0189,-0.0191,-0.0166,-0.0167,-0.0169,-0.0169,0,0,0,0,0,0,0,-0.0048,-0.0052,-0.0103,-0.0094,-0.0094,-0.0087,-0.009,-0.0116,-0.0128,-0.0105,-0.0105,-0.0108,-0.0143,-0.0149,-0.0153,-0.0192,-0.0166,-0.0168,-0.017,-0.0171,-0.0296,-0.0298,0,0,0,0,0,0,-0.0047,-0.0051,-0.0102,-0.0103,-0.007,-0.0089,-0.0092,-0.0106,-0.0127,-0.0129,-0.0109,-0.0108,-0.0145,-0.015,-0.0154,-0.0208,-0.0169,-0.0171,-0.0172,-0.0294,-0.0297,-0.0299,0,0,0,0,0,0,-0.0046,-0.0052,-0.0101,-0.0077,-0.0083,-0.0091,-0.0106,-0.0107,-0.0116,-0.0129,-0.0132,-0.0117,-0.0145,-0.0151,-0.0198,-0.0209,-0.0172,-0.0174,-0.0292,-0.0295,-0.0298,-0.0304,0,0,0,0,0,0,-0.0044,-0.0052,-0.0063,-0.0078,-0.0084,-0.0122,-0.0107,-0.0108,-0.0119,-0.0118,-0.0138,-0.014,-0.0145,-0.0194,-0.02,-0.0212,-0.0176,-0.029,-0.0293,-0.0297,-0.0302,-0.0307,-0.0311,0,0,0,0,0,-0.0042,-0.0068,-0.0063,-0.0069,-0.0099,-0.0123,-0.0126,-0.0128,-0.012,-0.0132,-0.0154,-0.014,-0.022,-0.0198,-0.0205,-0.0217,-0.0288,-0.0292,-0.0297,-0.0299,-0.0306,-0.0311,0,0,0,0,0,0,-0.0049,-0.007,-0.0065,-0.0098,-0.0108,-0.0122,-0.0135,-0.0134,-0.0159,-0.0162,-0.0168,-0.0174,-0.0221,-0.0228,-0.0203,-0.0267,-0.0251,-0.0256,-0.0251,-0.0257,-0.0262,-0.0253,-0.0178,0,0,0,0,0,-0.0054,-0.0078,-0.009,-0.0116,-0.012,-0.0126,-0.0136,-0.0139,-0.0161,-0.017,-0.0187,-0.0213,-0.0245,-0.0257,-0.0289,-0.0323,-0.0322,-0.0337,-0.0342,-0.0346,-0.0346,-0.0363,-0.0368,-0.0313,-0.0313,-0.0312,0,0,-0.0067,-0.0079,-0.0094,-0.0118,-0.0125,-0.0145,-0.0131,-0.0153,-0.018,-0.0174,-0.0221,-0.0237,-0.0263,-0.0305,-0.0324,-0.0307,-0.0363,-0.0351,-0.0354,-0.0352,-0.0367,-0.0372,-0.0377,-0.0315,-0.0315,-0.0314,0,0,-0.0096,-0.011,-0.0132,-0.0143,-0.0157,-0.0167,-0.0174,-0.0194,-0.021,-0.0255,-0.0261,-0.0287,-0.0333,-0.035,-0.0364,-0.042,-0.0396,-0.0425,-0.043,-0.0446,-0.045,-0.0453,-0.0457,-0.0461,-0.0417,-0.0417,-0.0417,0,-0.0109,-0.0134,-0.0143,-0.016,-0.0174,-0.0178,-0.0202,-0.0226,-0.0262,-0.0283,-0.0276,-0.0342,-0.0357,-0.04,-0.0412,-0.0428,-0.0425,-0.0398,-0.0449,-0.0452,-0.0455,-0.0459,-0.0463,-0.0418,-0.0418,-0.0418,-0.0417,0,-0.0145,-0.0163,-0.0179,-0.0203,-0.0223,-0.0247,-0.0274,-0.0304,-0.032,-0.0337,-0.0387,-0.0406,-0.0432,-0.0443,-0.044,-0.0471,-0.0459,-0.0457,-0.0423,-0.046,-0.0463,-0.0467,-0.0419,-0.0419,-0.0418,-0.0418,0,0,-0.0177,-0.0199,-0.0204,-0.0212,-0.0246,-0.0267,-0.0321,-0.0363,-0.0391,-0.0422,-0.0453,-0.0495,-0.0479,-0.0494,-0.0489,-0.0496,-0.0511,-0.0475,-0.0475,-0.0461,-0.0531,-0.0494,-0.0494,-0.0506,-0.0507,-0.0508,-0.0522,0,-0.0198,-0.0227,-0.0245,-0.0283,-0.0296,-0.0324,-0.0371,-0.0413,-0.0443,-0.0478,-0.0496,-0.052,-0.0507,-0.0498,-0.0509,-0.0512,-0.0521,-0.0506,-0.0514,-0.0514,-0.0461,-0.0498,-0.051,-0.0525,-0.0526,-0.0526,-0.0527,0,-0.0221,-0.0236,-0.0272,-0.0306,-0.0317,-0.0354,-0.0414,-0.0453,-0.0506,-0.0521,-0.054,-0.0542,-0.0555,-0.0534,-0.0555,-0.0539,-0.0536,-0.0538,-0.0539,-0.0502,-0.0484,-0.0484,-0.0533,-0.0533,-0.0532,-0.0532,-0.0531,0,-0.0217,-0.0255,-0.0283,-0.0296,-0.0342,-0.038,-0.0411,-0.047,-0.0494,-0.0533,-0.0536,-0.0564,-0.0557,-0.057,-0.0552,-0.0553,-0.0568,-0.0575,-0.0547,-0.0544,-0.0566,-0.0562,-0.06,-0.06,-0.06,-0.0599,-0.0599,0,-0.0226,-0.0246,-0.0285,-0.0298,-0.0341,-0.0378,-0.0424,-0.0461,-0.05,-0.051,-0.054,-0.053,-0.0561,-0.0563,-0.0564,-0.0554,-0.0577,-0.0554,-0.0549,-0.0571,-0.0567,-0.0568,-0.0564,-0.06,-0.06,-0.06,-0.06,0,-0.0215,-0.0237,-0.0264,-0.0317,-0.0336,-0.0366,-0.0412,-0.0433,-0.0474,-0.0484,-0.0484,-0.0507,-0.0504,-0.0533,-0.0549,-0.0554,-0.0559,-0.0549,-0.056,-0.0554,-0.0526,-0.0523,-0.0542,-0.0541,-0.054,-0.0539,-0.0538,0,-0.0212,-0.0225,-0.0269,-0.028,-0.0307,-0.0346,-0.0365,-0.0413,-0.0419,-0.0448,-0.0438,-0.0452,-0.046,-0.0463,-0.0494,-0.0521,-0.0518,-0.053,-0.0547,-0.0529,-0.0522,-0.052,-0.0519,-0.0537,-0.0537,-0.0536,-0.0536,0,-0.021,-0.0228,-0.0251,-0.0253,-0.0277,-0.0302,-0.0329,-0.0327,-0.0362,-0.0394,-0.0382,-0.0399,-0.0405,-0.0429,-0.0451,-0.0465,-0.0533,-0.0521,-0.0523,-0.054,-0.0523,-0.0517,-0.0516,-0.0533,-0.0533,-0.0534,-0.0534,0,-0.0219,-0.022,-0.0232,-0.0223,-0.0234,-0.0244,-0.0279,-0.0284,-0.0301,-0.0334,-0.0313,-0.0344,-0.0368,-0.0396,-0.0403,-0.0429,-0.0446,-0.0461,-0.0467,-0.0472,-0.0446,-0.0414,-0.039,0,0,0,0,0,-0.0218,-0.0194,-0.0191,-0.0191,-0.0188,-0.0193,-0.0233,-0.0267,-0.0287,-0.027,-0.03,-0.0299,-0.0333,-0.0345,-0.0364,-0.0394,-0.0454,-0.0417,-0.0475,-0.0515,-0.0518,-0.0497,0,0,0,0,0,0,-0.0222,-0.0217,-0.018,-0.0134,-0.0115,-0.0134,-0.0154,-0.0198,-0.0196,-0.022,-0.0234,-0.0274,-0.0305,-0.0299,-0.0344,-0.0356,-0.0393,-0.0443,-0.0443,-0.0512,-0.0516,-0.0519,-0.0498,0,0,0,0,0]}]]